Regional Weather Roundup
Issued by NWS Memphis, TN

Home | Current Version | Previous Version | Text Only | Print | Product List | Glossary On
Versions: 1 2 3 4 5 6 7 8 9 10 11 12 13 14 15 16 17 18 19 20 21 22 23 24 25 26 27 28 29 30 31 32 33 34 35 36 37 38 39 40 41 42 43 44 45 46 47 48 49 50
000
ASUS44 KMEG 271410
RWRMEG
MEMPHIS CWA HOURLY WEATHER ROUNDUP
NATIONAL WEATHER SERVICE MEMPHIS TN
900 AM CDT WED MAY 27 2015

...WEST TENNESSEE...

CITY           SKY/WX    TMP DP  RH WIND       PRES   REMARKS
MEMPHIS INTL   PTSUNNY   79  65  62 SW10G21   30.14R
NWS MEMPHIS      N/A     76 N/A N/A MISG        N/A
JACKSON        CLOUDY    75  68  78 SW7       30.16R
LEXINGTON      CLOUDY    72  68  88 S6        30.17R
DYERSBURG      MOSUNNY   75  59  57 SW9       30.15R
PARIS          SUNNY     73  68  83 S7        30.15R


...EASTERN ARKANSAS...

CITY           SKY/WX    TMP DP  RH WIND       PRES   REMARKS
JONESBORO      PTSUNNY   75  70  84 SW14      30.12R
WEST MEMPHIS   MOSUNNY   75  68  78 SW8       30.13R
BATESVILLE     MOSUNNY   73  68  83 SE7       30.12S
NEWPORT        CLOUDY    74  69  84 SW8       30.14R
WALNUT RIDGE   MOSUNNY   73  66  78 SW9       30.11R
BLYTHEVILLE    SUNNY     77  72  84 SW9       30.13R
NW BLYTHEVILLE PTSUNNY   77  70  78 SW12      30.13
SEARCY         CLOUDY    73  68  84 VRB3      30.14S
STUTTGART      CLOUDY    75  64  69 S13       30.12R
PINE BLUFF     CLOUDY    71  66  84 S6        30.11S
MONTICELLO     CLOUDY    68  67  96 NE6       30.13R


...NORTH MISSISSIPPI...

CITY           SKY/WX    TMP DP  RH WIND       PRES   REMARKS
TUPELO         CLOUDY    74  69  85 S7        30.17R
OXFORD         MOSUNNY   72  64  78 SW5       30.19R
OLIVE BRANCH   PTSUNNY   75  70  83 S12       30.16R THUNDER
TUNICA         PTSUNNY   72  66  83 S6        30.15R
CLARKSDALE       N/A     72  68  88 CALM      30.14S
CORINTH        MOSUNNY   73  68  83 S6        30.17R
GREENWOOD      PTSUNNY   77  69  76 CALM      30.14R
COLUMBUS       CLOUDY    73 N/A N/A SE8       30.17R FOG
STARKVILLE     CLOUDY    70  70 100 S5        30.17S
GOLDEN TRIANGL CLOUDY    72  70  94 SE8       30.16R FOG


...SOUTHEAST MISSOURI...

CITY           SKY/WX    TMP DP  RH WIND       PRES   REMARKS
WEST PLAINS    CLOUDY    66  61  84 S5        30.14R
POPLAR BLUFF   LGT RAIN  68  60  75 N9        30.13R
CAPE GIRARDEAU CLOUDY    69  63  81 W10       30.14R


...NORTHWEST ALABAMA...

CITY           SKY/WX    TMP DP  RH WIND       PRES   REMARKS
MUSCLE SHOALS  CLOUDY    75  67  76 S8        30.20R


...MIDDLE TENNESSEE...

CITY           SKY/WX    TMP DP  RH WIND       PRES   REMARKS
NASHVILLE      PTSUNNY   74  68  81 S9        30.20R
CLARKSVILLE    MOSUNNY   74  69  85 S7        30.15S
COLUMBIA       CLOUDY    73  70  88 SW7       30.18R


...WESTERN KENTUCKY...

CITY           SKY/WX    TMP DP  RH WIND       PRES   REMARKS
PADUCAH        PTSUNNY   75  68  78 SW8       30.11R
FORT CAMPBELL  MOSUNNY   74  69  81 S9        30.14S


...CENTRAL ARKANSAS...

CITY           SKY/WX    TMP DP  RH WIND       PRES   REMARKS
LITTLE ROCK    CLOUDY    73  66  78 S6        30.11S


SKY/WX REPORTED AS FAIR MEANS FEW OR NO CLOUDS BELOW
12 THOUSAND FEET.




USA.gov is the U.S. government's official web portal to all federal, state and local government web resources and services.